Terug naar catalogus

COSMOS 1618

ActiefNavigatiePO
NORAD 15470·PAYLOAD·🇷🇺 Russia

Gelanceerd Jan 15, 1985 vanaf Plesetsk Cosmodrome

Loading…

Volgende Passages (komende 24 uur)

TLE

VersSource: Space-Track

Epoch: Sep 14, 2026, 08:24 UTC

1 15470U 85003B   26257.35040203  .00000000  00000-0 -57067-4 0  9992
2 15470  82.6048  36.3249 0005316  39.1915 348.8126 12.62994998920638

Volg COSMOS 1618 in realtime met AllMySat

Download on the App Store